DB0DUS-10 Weather Reports


time (UTC)temp
F
wind
direction
speed
knots
gust
knots
rain 1hr
in
rain 24hr
in
rain mn
in
humidity
%
barometer
mb
20260507104257 78 307 5.2 11.3 0.00 0.08 0.00 27 1016.0
20260507103756 78 358 4.3 9.6 0.00 0.11 0.00 27 1015.8
20260507101757 77 303 6.1 10.4 0.00 0.11 0.00 30 1015.8
20260507100756 77 317 6.1 8.7 0.00 0.11 0.00 31 1015.7
20260507095257 72 11 0.9 4.3 0.00 0.11 0.00 38 1015.7
20260507093756 72 336 6.1 7.8 0.00 0.13 0.00 40 1015.6
20260507092758 72 285 5.2 7.8 0.00 0.13 0.00 39 1015.6
20260507090756 73 16 2.6 7.0 0.00 0.13 0.00 42 1015.5
20260507090257 72 352 1.7 7.8 0.00 0.13 0.00 42 1015.4
20260507083756 69 303 1.7 7.0 0.00 0.16 0.00 49 1015.4
20260507081257 65 305 6.1 7.8 0.00 0.16 0.00 55 1015.3
20260507080756 65 348 4.3 7.8 0.00 0.16 0.00 56 1015.3
20260507074758 62 267 6.1 7.8 0.00 0.16 0.00 65 1015.2
20260507073756 59 316 0.9 6.1 0.00 0.19 0.00 71 1015.1
20260507072257 55 277 3.5 6.1 0.00 0.19 0.00 75 1015.0
20260507070756 54 312 5.2 8.7 0.00 0.19 0.00 78 1014.9
20260507065757 53 327 6.1 7.8 0.00 0.19 0.00 79 1014.9
20260507063756 53 313 3.5 7.8 0.00 0.22 0.00 82 1014.8
20260507063257 52 312 4.3 7.0 0.00 0.22 0.00 84 1014.7
20260507060757 51 272 3.5 7.0 0.00 0.22 0.00 85 1014.5
20260507054258 50 303 7.0 9.6 0.00 0.22 0.00 86 1014.3
20260507053757 50 312 6.1 7.8 0.00 0.26 0.00 86 1014.3
20260507051758 49 288 6.1 9.6 0.00 0.26 0.00 87 1014.1
20260507050757 49 289 7.0 8.7 0.00 0.26 0.00 88 1014.0
20260507045258 49 316 6.1 6.1 0.00 0.26 0.00 88 1013.8
20260507043757 49 316 3.5 6.1 0.00 0.31 0.00 89 1013.6
20260507042758 49 299 5.2 7.0 0.00 0.31 0.00 89 1013.5
20260507040757 49 330 3.5 7.0 0.00 0.31 0.00 89 1013.3
20260507033757 48 306 3.5 5.2 0.00 0.40 0.00 89 1013.2
20260507031258 49 310 4.3 6.1 0.00 0.40 0.00 89 1013.0
20260507030757 49 300 2.6 4.3 0.00 0.40 0.00 89 1013.0
20260507024758 49 2 1.7 4.3 0.00 0.40 0.00 88 1012.9
20260507023757 49 340 0.9 4.3 0.00 0.53 0.00 88 1012.9
20260507022258 49 299 3.5 4.3 0.00 0.53 0.00 88 1012.9
20260507020757 49 348 1.7 2.6 0.00 0.53 0.00 88 1012.8
20260507015758 49 329 2.6 3.5 0.00 0.53 0.00 88 1012.8
20260507013757 49 338 0.9 1.7 0.00 0.68 0.00 88 1012.7
20260507013258 49 340 0.9 2.6 0.00 0.68 0.00 88 1012.7
20260507010757 49 336 3.5 4.3 0.00 0.68 0.00 88 1012.5
20260507004258 49 345 1.7 5.2 0.00 0.68 0.00 89 1012.5
20260507003757 49 306 3.5 4.3 0.00 0.76 0.00 89 1012.5
20260507001758 49 323 2.6 5.2 0.00 0.76 0.00 89 1012.3
20260507000757 49 336 2.6 4.3 0.00 0.76 0.00 89 1012.2
20260506235258 49 320 2.6 3.5 0.00 0.76 0.00 89 1012.3
20260506233757 49 316 3.5 4.3 0.00 0.82 0.00 90 1012.3
20260506232758 49 32 0.0 5.2 0.00 0.82 0.00 90 1012.2
20260506230757 49 326 3.5 5.2 0.00 0.82 0.00 90 1012.1
20260506230258 49 316 2.6 4.3 0.00 0.82 0.00 90 1011.9
20260506223757 49 324 3.5 5.2 0.00 0.90 0.87 91 1011.9
20260506221258 49 330 4.3 7.0 0.00 0.90 0.87 91 1011.7
20260506220757 49 320 6.1 6.1 0.00 0.90 0.87 91 1011.8
20260506214758 49 337 7.8 10.4 0.00 0.90 0.87 91 1011.7
20260506213757 49 336 5.2 10.4 0.00 0.96 0.87 92 1011.7
20260506212258 49 319 4.3 7.0 0.00 0.96 0.87 92 1011.6
20260506210757 49 303 5.2 7.0 0.00 0.96 0.87 92 1011.4
20260506205758 49 313 6.1 7.0 0.00 0.96 0.87 92 1011.4
20260506203758 49 350 3.5 7.0 0.00 0.97 0.87 92 1011.3
20260506203258 49 29 6.1 7.8 0.00 0.97 0.87 92 1011.2
20260506200758 49 336 3.5 7.8 0.00 0.97 0.87 92 1010.8
20260506194259 49 277 1.7 7.8 0.00 0.97 0.87 92 1010.7
20260506193758 49 316 4.3 7.8 0.01 0.97 0.87 92 1010.7
20260506191830 49 340 4.3 11.3 0.01 0.97 0.87 92 1010.5
20260506191759 49 340 4.3 11.3 0.01 0.97 0.87 92 1010.5
20260506190758 49 315 9.6 11.3 0.01 0.97 0.87 92 1010.3
20260506185259 50 327 3.5 6.1 0.01 0.97 0.87 92 1010.2
20260506183758 50 345 6.1 7.8 0.00 0.96 0.86 92 1010.1
20260506182759 50 219 3.5 8.7 0.01 0.96 0.86 92 1009.9
20260506180758 50 309 7.0 10.4 0.01 0.96 0.86 91 1009.7
20260506180259 50 343 6.1 9.6 0.01 0.96 0.86 91 1009.6
20260506173758 50 352 1.7 7.8 0.01 0.96 0.86 91 1009.3
20260506171259 51 39 0.9 7.0 0.00 0.95 0.85 90 1009.2
20260506170758 51 317 4.3 6.1 0.00 0.95 0.85 89 1009.1
20260506164759 51 358 0.9 6.1 0.00 0.95 0.85 88 1009.1
20260506163758 51 319 3.5 6.1 0.00 0.95 0.85 88 1009.1
20260506162259 51 317 5.2 7.8 0.00 0.95 0.85 87 1009.0
20260506160758 51 315 5.2 9.6 0.00 0.95 0.85 87 1008.8
20260506155759 51 358 1.7 11.3 0.00 0.95 0.85 87 1008.7
20260506153758 51 282 2.6 7.0 0.00 0.95 0.85 88 1008.9
20260506153259 51 305 1.7 7.0 0.00 0.95 0.85 88 1008.8
20260506150758 51 12 2.6 8.7 0.00 0.95 0.85 88 1008.7
20260506144259 52 354 4.3 10.4 0.01 0.95 0.85 87 1008.5
20260506143758 52 333 6.1 9.6 0.01 0.95 0.85 88 1008.5
20260506141802 53 4 5.2 10.4 0.01 0.95 0.85 88 1008.4
20260506140758 52 313 7.8 9.6 0.02 0.95 0.85 88 1008.4
20260506135259 53 351 3.5 9.6 0.03 0.95 0.85 90 1008.4
20260506133758 52 320 4.3 10.4 0.03 0.94 0.84 89 1008.4
20260506132759 52 343 5.2 11.3 0.03 0.94 0.84 89 1008.4
20260506130758 52 26 2.6 10.4 0.03 0.93 0.83 89 1008.2
20260506130259 52 338 3.5 13.0 0.04 0.93 0.83 89 1008.1
20260506123758 52 291 7.8 10.4 0.02 0.91 0.81 89 1008.1
20260506121259 52 329 8.7 14.8 0.02 0.90 0.80 90 1007.9
20260506120758 52 4 5.2 13.0 0.02 0.90 0.80 90 1007.9
20260506114759 51 52 3.5 13.9 0.02 0.89 0.79 91 1007.7
20260506113759 51 9 7.0 10.4 0.03 0.89 0.79 91 1007.7
20260506112259 52 322 6.1 9.6 0.03 0.88 0.78 91 1007.7
20260506110759 52 336 7.0 12.2 0.03 0.88 0.78 91 1007.6